Weather History for Olivia, MN

Change the Weather History Date:

Saturday, December 14, 2013

  Actual Average (KRWF) Record (KRWF)
Temperature  
Mean Temperature 6 °F -  
Max Temperature 12 °F 27 °F 55 °F (1998)
Min Temperature 1 °F 12 °F -17 °F (1989)
Degree Days  
Heating Degree Days 58    
Moisture  
Dew Point 3 °F    
Average Humidity 78    
Maximum Humidity 85    
Minimum Humidity 72    
Precipitation  
Precipitation 0.00 in - - ()
Sea Level Pressure  
Sea Level Pressure 30.17 in    
Wind  
Wind Speed 9 mph (NNW)    
Max Wind Speed 18 mph    
Max Gust Speed 24 mph    
Visibility 8 miles    
Events Snow    
Averages and records for this station are not official NWS values.
T = Trace of Precipitation, MM = Missing Value Source: NWS Daily Summary

Daily Weather History Graph

Daily Weather History Graph

Search for Another Location

Airport:

Trip Planner

Search our weather history database for the weather conditions in past years. The results will help you decide how hot, cold, wet, or windy it might be!

Date:

Astronomy

Dec. 14, 2013 Rise Set
Actual Time 7:50 AM CST 4:39 PM CST
Civil Twilight 7:16 AM CST 5:13 PM CST
Nautical Twilight 6:39 AM CST 5:50 PM CST
Astronomical Twilight 6:03 AM CST 6:25 PM CST
Moon 3:06 PM CST (12/14) 5:07 AM CST (12/14)
Length of Visible Light 9h 56m
Length of Day
8h 49m
Waxing Gibbous, 94% of the Moon is Illuminated
Dec 14
Waxing Gibbous
Dec 17
Full
Dec 25
Last Quarter
Jan 1
New
Jan 7
First Quarter

Hourly Weather History & Observations

Time (CST) Temp. Windchill Dew Point Humidity Pressure Visibility Wind Dir Wind Speed Gust Speed Precip Events Conditions
12:14 AM 10.4 °F -0.4 °F 5.0 °F 79% 30.25 in 7.0 mi NE 6.9 mph - N/A   Overcast
12:33 AM 10.4 °F -2.4 °F 5.0 °F 79% 30.25 in 5.0 mi NE 9.2 mph - N/A   Haze
12:53 AM 10.4 °F -1.5 °F 5.0 °F 79% 30.24 in 5.0 mi NE 8.1 mph - N/A   Haze
1:14 AM 10.4 °F -2.4 °F 5.0 °F 79% 30.24 in 7.0 mi NE 9.2 mph - N/A   Overcast
1:33 AM 10.4 °F -1.5 °F 5.0 °F 79% 30.23 in 7.0 mi NE 8.1 mph - N/A   Overcast
1:53 AM 10.4 °F -0.4 °F 5.0 °F 79% 30.24 in 4.0 mi NNE 6.9 mph - N/A   Haze
2:14 AM 10.4 °F -0.4 °F 5.0 °F 79% 30.23 in 4.0 mi NE 6.9 mph - N/A   Haze
2:33 AM 10.4 °F -1.5 °F 5.0 °F 79% 30.23 in 5.0 mi NNE 8.1 mph - N/A   Haze
2:53 AM 10.4 °F -1.5 °F 5.0 °F 79% 30.22 in 10.0 mi NE 8.1 mph - N/A   Overcast
3:13 AM 10.4 °F -0.4 °F 5.0 °F 79% 30.22 in 4.0 mi NNE 6.9 mph - N/A Snow Light Snow
3:34 AM 10.4 °F -1.5 °F 5.0 °F 79% 30.22 in 4.0 mi NE 8.1 mph - N/A Snow Light Snow
3:53 AM 10.4 °F -0.4 °F 5.0 °F 79% 30.21 in 7.0 mi NNE 6.9 mph - N/A Snow Light Snow
4:13 AM 10.4 °F -0.4 °F 5.0 °F 79% 30.21 in 10.0 mi NNE 6.9 mph - N/A   Overcast
4:33 AM 10.4 °F -1.5 °F 5.0 °F 79% 30.21 in 7.0 mi NNE 8.1 mph - N/A Snow Light Snow
4:53 AM 10.4 °F 0.8 °F 5.0 °F 79% 30.21 in 7.0 mi NNE 5.8 mph - N/A Snow Light Snow
5:13 AM 10.4 °F 0.8 °F 5.0 °F 79% 30.21 in 7.0 mi NNE 5.8 mph - N/A Snow Light Snow
5:33 AM 10.4 °F -0.4 °F 5.0 °F 79% 30.22 in 7.0 mi North 6.9 mph - N/A Snow Light Snow
5:54 AM 10.4 °F 2.2 °F 5.0 °F 79% 30.21 in 7.0 mi NNE 4.6 mph - N/A Snow Light Snow
6:13 AM 10.4 °F 0.8 °F 5.0 °F 79% 30.21 in 7.0 mi North 5.8 mph - N/A Snow Light Snow
6:34 AM 10.4 °F 0.8 °F 5.0 °F 79% 30.21 in 7.0 mi North 5.8 mph - N/A Snow Light Snow
6:53 AM 10.4 °F 4.0 °F 5.0 °F 79% 30.22 in 10.0 mi North 3.5 mph - N/A Snow Light Snow
7:13 AM 10.4 °F 0.8 °F 5.0 °F 79% 30.22 in 10.0 mi NNW 5.8 mph - N/A Snow Light Snow
7:33 AM 10.4 °F 2.2 °F 5.0 °F 79% 30.21 in 10.0 mi NNW 4.6 mph - N/A Snow Light Snow
7:53 AM 10.4 °F 2.2 °F 5.0 °F 79% 30.21 in 10.0 mi NNW 4.6 mph - N/A   Overcast
8:13 AM 10.4 °F 2.2 °F 5.0 °F 79% 30.21 in 10.0 mi NNW 4.6 mph - N/A   Overcast
8:33 AM 10.4 °F 4.0 °F 5.0 °F 79% 30.21 in 10.0 mi NNW 3.5 mph - N/A   Overcast
8:53 AM 10.4 °F 0.8 °F 5.0 °F 79% 30.22 in 10.0 mi NW 5.8 mph - N/A Snow Light Snow
9:13 AM 10.4 °F 2.2 °F 5.0 °F 79% 30.21 in 4.0 mi NW 4.6 mph - N/A Snow Light Snow
9:33 AM 10.4 °F 2.2 °F 5.0 °F 79% 30.22 in 7.0 mi NW 4.6 mph - N/A Snow Light Snow
9:53 AM 10.4 °F - 5.0 °F 79% 30.20 in 10.0 mi Calm Calm - N/A   Overcast
10:13 AM 10.4 °F 2.2 °F 5.0 °F 79% 30.21 in 10.0 mi NNW 4.6 mph - N/A   Overcast
10:33 AM 10.4 °F 0.8 °F 5.0 °F 79% 30.21 in 10.0 mi NW 5.8 mph - N/A   Overcast
10:53 AM 10.4 °F -0.4 °F 5.0 °F 79% 30.20 in 10.0 mi NW 6.9 mph - N/A   Overcast
11:13 AM 10.4 °F -1.5 °F 5.0 °F 79% 30.19 in 10.0 mi WNW 8.1 mph - N/A Snow Light Snow
11:33 AM 10.4 °F -1.5 °F 5.0 °F 79% 30.18 in 10.0 mi West 8.1 mph - N/A   Overcast
11:53 AM 10.4 °F -3.3 °F 5.0 °F 79% 30.17 in 10.0 mi WNW 10.4 mph - N/A   Overcast
12:13 PM 12.2 °F -1.0 °F 5.0 °F 73% 30.15 in 10.0 mi WNW 10.4 mph - N/A   Overcast
12:33 PM 12.2 °F -1.8 °F 5.0 °F 73% 30.14 in 10.0 mi West 11.5 mph - N/A   Overcast
12:54 PM 12.2 °F -1.8 °F 6.8 °F 79% 30.13 in 10.0 mi WNW 11.5 mph - N/A   Overcast
1:13 PM 12.2 °F -1.8 °F 6.8 °F 79% 30.12 in 10.0 mi WNW 11.5 mph - N/A   Overcast
1:33 PM 12.2 °F -2.5 °F 6.8 °F 79% 30.11 in 5.0 mi West 12.7 mph - N/A   Haze
1:54 PM 12.2 °F -3.1 °F 6.8 °F 79% 30.12 in 7.0 mi NW 13.8 mph - N/A   Overcast
2:13 PM 12.2 °F -1.8 °F 6.8 °F 79% 30.11 in 5.0 mi NW 11.5 mph - N/A Snow Light Snow
2:33 PM 12.2 °F -3.1 °F 6.8 °F 79% 30.10 in 10.0 mi WNW 13.8 mph - N/A   Overcast
2:53 PM 12.2 °F -2.5 °F 6.8 °F 79% 30.11 in 10.0 mi WNW 12.7 mph - N/A Snow Light Snow
3:13 PM 12.2 °F -2.5 °F 6.8 °F 79% 30.10 in 7.0 mi WNW 12.7 mph - N/A Snow Light Snow
3:33 PM 12.2 °F -1.8 °F 6.8 °F 79% 30.11 in 5.0 mi WNW 11.5 mph - N/A Snow Light Snow
3:54 PM 12.2 °F -1.8 °F 6.8 °F 79% 30.11 in 4.0 mi WNW 11.5 mph 18.4 mph N/A Snow Light Snow
4:13 PM 12.2 °F -4.8 °F 5.0 °F 73% 30.11 in 4.0 mi NW 17.3 mph - N/A Snow Light Snow
4:33 PM 10.4 °F -7.2 °F 5.0 °F 79% 30.12 in 3.0 mi NW 17.3 mph 20.7 mph N/A Snow Light Snow
4:53 PM 10.4 °F -7.7 °F 5.0 °F 79% 30.13 in 4.0 mi NW 18.4 mph 24.2 mph N/A   Haze
5:14 PM 8.6 °F -8.3 °F 1.4 °F 73% 30.13 in 10.0 mi NW 15.0 mph - N/A   Scattered Clouds
5:33 PM 8.6 °F -7.0 °F 1.4 °F 73% 30.14 in 10.0 mi NW 12.7 mph - N/A   Clear
5:53 PM 5.0 °F -10.8 °F -0.4 °F 78% 30.13 in 10.0 mi NW 11.5 mph - N/A   Clear
6:13 PM 5.0 °F -9.1 °F -0.4 °F 78% 30.13 in 10.0 mi NW 9.2 mph - N/A   Scattered Clouds
6:33 PM 5.0 °F -10.0 °F -0.4 °F 78% 30.13 in 10.0 mi NW 10.4 mph - N/A   Scattered Clouds
6:53 PM 5.0 °F -10.8 °F -0.4 °F 78% 30.13 in 10.0 mi NW 11.5 mph - N/A   Clear
7:13 PM 5.0 °F -10.8 °F -0.4 °F 78% 30.13 in 10.0 mi NW 11.5 mph - N/A   Clear
7:33 PM 3.2 °F -11.3 °F -0.4 °F 85% 30.13 in 10.0 mi NW 9.2 mph - N/A   Clear
7:53 PM 3.2 °F -14.6 °F -2.2 °F 78% 30.13 in 10.0 mi NW 13.8 mph - N/A   Clear
8:13 PM 3.2 °F -15.3 °F -2.2 °F 78% 30.13 in 10.0 mi NW 15.0 mph 19.6 mph N/A   Clear
8:33 PM 3.2 °F -13.1 °F -2.2 °F 78% 30.13 in 10.0 mi NW 11.5 mph - N/A   Scattered Clouds
8:53 PM 3.2 °F -14.6 °F -2.2 °F 78% 30.12 in 10.0 mi NW 13.8 mph 19.6 mph N/A   Mostly Cloudy
9:13 PM 3.2 °F -13.9 °F -2.2 °F 78% 30.12 in 10.0 mi NW 12.7 mph - N/A   Overcast
9:34 PM 3.2 °F -14.6 °F -2.2 °F 78% 30.12 in 10.0 mi NW 13.8 mph 19.6 mph N/A   Overcast
9:53 PM 3.2 °F -14.6 °F -4.0 °F 72% 30.12 in 10.0 mi NW 13.8 mph - N/A   Mostly Cloudy
10:13 PM 3.2 °F -12.2 °F -4.0 °F 72% 30.12 in 10.0 mi NW 10.4 mph - N/A   Clear
10:34 PM 3.2 °F -14.6 °F -4.0 °F 72% 30.13 in 10.0 mi NW 13.8 mph - N/A   Clear
10:53 PM 1.4 °F -16.9 °F -4.0 °F 78% 30.13 in 10.0 mi NW 13.8 mph - N/A   Clear
11:13 PM 1.4 °F -16.1 °F -4.0 °F 78% 30.13 in 10.0 mi NW 12.7 mph - N/A   Mostly Cloudy
11:33 PM 1.4 °F -16.1 °F -4.0 °F 78% 30.13 in 10.0 mi NNW 12.7 mph - N/A   Scattered Clouds
11:53 PM 1.4 °F -16.9 °F -5.8 °F 72% 30.13 in 10.0 mi NNW 13.8 mph - N/A   Overcast